Zurück zum Katalog

FENGYUN 1C DEB

AktivSSO
NORAD 29994·DEBRIS·🇨🇳 China

Gestartet May 10, 1999 von Taiyuan Satellite Launch Center

Loading…

Nächste Überflüge (nächste 24 Stunden)

TLE

AktuellSource: Space-Track

Epoche: Sep 14, 2026, 20:45 UTC

1 29994U 99025LU  26257.86496831 -.00000209  00000-0 -10019-3 0  9992
2 29994  98.8001 286.3091 0130032 162.6408  14.2938 14.02794909  5979

Verfolge FENGYUN 1C DEB in Echtzeit mit AllMySat

Download on the App Store